TimeMST,TemperatureF,Dew PointF,Humidity,Sea Level PressureIn,VisibilityMPH,Wind Direction,Wind SpeedMPH,Gust SpeedMPH,PrecipitationIn,Events,Conditions,WindDirDegrees,DateUTC
12:53 AM,12.0,-8.0,41,30.27,10.0,Calm,Calm,-,N/A,,Clear,0,2014-02-21 07:53:00
1:53 AM,12.0,-7.1,42,30.25,10.0,Calm,Calm,-,N/A,,Clear,0,2014-02-21 08:53:00
2:53 AM,10.9,-6.0,47,30.23,10.0,Calm,Calm,-,N/A,,Clear,0,2014-02-21 09:53:00
3:53 AM,12.9,-6.0,43,30.21,10.0,NE,3.5,-,N/A,,Clear,40,2014-02-21 10:53:00
4:53 AM,10.9,-4.0,51,30.23,10.0,ENE,3.5,-,N/A,,Clear,70,2014-02-21 11:53:00
5:53 AM,12.9,-4.0,47,30.25,10.0,NE,3.5,-,N/A,,Clear,40,2014-02-21 12:53:00
6:53 AM,10.9,-4.0,51,30.33,10.0,Calm,Calm,-,N/A,,Clear,0,2014-02-21 13:53:00
7:53 AM,18.0,-0.9,44,30.30,10.0,Calm,Calm,-,N/A,,Clear,0,2014-02-21 14:53:00
8:53 AM,28.0,1.9,33,30.30,10.0,Calm,Calm,-,N/A,,Clear,0,2014-02-21 15:53:00
9:53 AM,35.1,1.0,24,30.25,10.0,Calm,Calm,-,N/A,,Clear,0,2014-02-21 16:53:00
10:53 AM,45.0,1.0,16,30.17,10.0,SW,6.9,-,N/A,,Clear,230,2014-02-21 17:53:00
11:53 AM,48.9,3.9,16,30.14,10.0,West,10.4,-,N/A,,Clear,260,2014-02-21 18:53:00
12:53 PM,51.1,6.1,16,30.11,10.0,WNW,8.1,-,N/A,,Clear,300,2014-02-21 19:53:00
1:53 PM,55.0,10.9,17,30.04,10.0,WNW,11.5,-,N/A,,Partly Cloudy,290,2014-02-21 20:53:00
2:53 PM,55.0,10.0,17,30.04,10.0,WNW,16.1,34.5,N/A,,Partly Cloudy,290,2014-02-21 21:53:00
3:53 PM,55.0,10.9,17,30.01,10.0,West,17.3,24.2,N/A,,Clear,270,2014-02-21 22:53:00
4:53 PM,54.0,10.9,18,30.02,10.0,West,19.6,-,N/A,,Clear,280,2014-02-21 23:53:00
5:53 PM,50.0,12.0,22,30.04,10.0,West,18.4,-,N/A,,Clear,270,2014-02-22 00:53:00
6:53 PM,43.0,7.0,23,30.13,10.0,NNW,4.6,-,N/A,,Clear,330,2014-02-22 01:53:00
7:53 PM,36.0,3.9,26,30.14,10.0,East,3.5,-,N/A,,Clear,80,2014-02-22 02:53:00
8:53 PM,28.0,3.0,34,30.13,10.0,Calm,Calm,-,N/A,,Clear,0,2014-02-22 03:53:00
9:53 PM,28.9,3.9,35,30.08,10.0,Calm,Calm,-,N/A,,Clear,0,2014-02-22 04:53:00
10:53 PM,25.0,3.9,41,30.04,10.0,South,3.5,-,N/A,,Clear,180,2014-02-22 05:53:00
11:53 PM,24.1,6.1,46,30.00,10.0,ENE,3.5,-,N/A,,Clear,60,2014-02-22 06:53:00